This demonstration page uses our WeatherBlox Daily Observations layout. Learn more.

39.51506, -84.39828

Hourly Observations for July 15, 2019

Temp ( °F °C ) Dew Point ( °F °C ) Humidity (%) Winds ( mph kmh ) Pressure ( in mb ) Visibility ( mi km ) Precip ( " mm )
12:15 am 00:15 Clear 71 21.4 65 18.5 84 84 Calm 30.09 1019 10 16.09344 N/A
12:35 am 00:35 Clear 69 20.8 65 18.5 87 87 W 3 6 30.12 1020 10 16.09344 N/A
12:55 am 00:55 Clear 69 20.4 66 18.8 91 91 W 5 7 30.12 1020 10 16.09344 N/A
1:15 am 01:15 Clear 69 20.6 66 18.7 89 89 NW 3 6 30.09 1019 10 16.09344 N/A
1:35 am 01:35 Clear 69 20.7 66 18.7 88 88 Calm 30.09 1019 10 16.09344 N/A
1:55 am 01:55 Clear 69 20.5 66 18.8 90 90 Calm 30.09 1019 10 16.09344 N/A
2:15 am 02:15 Clear 68 19.9 65 18.4 91 91 NNE 6 9 30.09 1019 10 16.09344 N/A
2:35 am 02:35 Clear 69 20.3 65 18.4 89 89 Calm 30.09 1019 10 16.09344 N/A
2:55 am 02:55 Clear 68 20.2 65 18.2 88 88 Calm 30.09 1019 10 16.09344 N/A
3:15 am 03:15 Clear 67 19.5 65 18.3 93 93 Calm 30.09 1019 10 16.09344 N/A
3:35 am 03:35 Clear 67 19.5 65 18.3 93 93 Calm 30.09 1019 10 16.09344 N/A
3:55 am 03:55 Clear 65 18.6 64 17.8 95 95 N 3 6 30.09 1019 10 16.09344 N/A
4:15 am 04:15 Clear 66 18.9 65 18.2 96 96 Calm 30.09 1019 10 16.09344 N/A
4:35 am 04:35 Clear 65 18.6 64 17.8 95 95 Calm 30.09 1019 10 16.09344 N/A
4:55 am 04:55 Clear 67 19.2 65 18.5 96 96 Calm 30.09 1019 10 16.09344 N/A
5:15 am 05:15 Clear 66 18.7 64 18 96 96 Calm 30.09 1019 10 16.09344 N/A
5:35 am 05:35 Clear 65 18.4 64 17.9 97 97 Calm 30.09 1019 10 16.09344 N/A
5:55 am 05:55 Clear 66 18.7 65 18.1 96 96 Calm 30.12 1020 10 16.09344 N/A
6:15 am 06:15 Clear 66 18.8 65 18.1 96 96 Calm 30.12 1020 10 16.09344 N/A
6:35 am 06:35 Sunny 66 18.8 64 18 95 95 Calm 30.12 1020 10 16.09344 N/A
6:55 am 06:55 Sunny 66 18.9 65 18.2 96 96 Calm 30.12 1020 10 16.09344 N/A
7:15 am 07:15 Sunny 67 19.7 66 19 96 96 Calm 30.12 1020 10 16.09344 N/A
7:35 am 07:35 Sunny 69 20.5 66 19 91 91 Calm 30.12 1020 10 16.09344 N/A
7:55 am 07:55 Sunny 71 21.6 67 19.5 88 88 Calm 30.12 1020 10 16.09344 N/A
8:15 am 08:15 Sunny 73 22.6 67 19.6 83 83 Calm 30.12 1020 10 16.09344 N/A
8:35 am 08:35 Sunny 74 23.6 68 19.9 80 80 SSW 3 6 30.12 1020 10 16.09344 N/A
8:55 am 08:55 Sunny 76 24.5 68 20.2 77 77 SSW 3 6 30.12 1020 10 16.09344 N/A
9:15 am 09:15 Sunny 77 25.2 69 20.7 76 76 Calm 30.12 1020 10 16.09344 N/A
9:35 am 09:35 Sunny 80 26.7 71 21.7 74 74 Calm 30.12 1020 10 16.09344 N/A
9:55 am 09:55 Sunny 81 27.4 71 21.9 72 72 Calm 30.12 1020 10 16.09344 N/A
10:15 am 10:15 Sunny 82 27.8 72 22 71 71 Calm 30.12 1020 10 16.09344 N/A
10:35 am 10:35 Sunny 83 28.3 73 22.5 71 71 Calm 30.12 1020 10 16.09344 N/A
10:55 am 10:55 Sunny 83 28.5 73 22.7 71 71 Calm 30.12 1020 10 16.09344 N/A
11:15 am 11:15 Sunny 84 29.1 73 22.8 69 69 N 3 6 30.12 1020 10 16.09344 N/A
11:35 am 11:35 Sunny 86 29.8 73 22.9 67 67 N 5 7 30.09 1019 10 16.09344 N/A
11:55 am 11:55 Sunny 86 30 73 22.8 65 65 Calm 30.09 1019 10 16.09344 N/A
12:15 pm 12:15 Sunny 87 30.5 74 23.1 65 65 N 3 6 30.06 1018 10 16.09344 N/A
12:35 pm 12:35 Partly Cloudy 88 30.9 73 22.5 61 61 NNW 3 6 30.06 1018 10 16.09344 N/A
12:55 pm 12:55 Sunny 88 31.1 73 22.7 61 61 SW 7 11 30.06 1018 10 16.09344 N/A
1:15 pm 13:15 Sunny 90 32.1 72 22.1 55 55 W 6 9 30.06 1018 10 16.09344 N/A
1:35 pm 13:35 Sunny 90 32.1 72 22.3 56 56 W 6 9 30.06 1018 10 16.09344 N/A
1:55 pm 13:55 Partly Cloudy 90 32.2 72 22.3 56 56 WNW 7 11 30.06 1018 10 16.09344 N/A
2:15 pm 14:15 Mostly Cloudy 90 32.4 71 21.9 54 54 NW 3 6 30.03 1017 10 16.09344 N/A
2:35 pm 14:35 Mostly Cloudy 88 31 70 21.3 56 56 S 3 6 30.03 1017 10 16.09344 N/A
2:55 pm 14:55 Partly Cloudy 89 31.7 71 21.6 55 55 SW 3 6 30.03 1017 10 16.09344 N/A
3:15 pm 15:15 Sunny 87 30.8 71 21.9 59 59 ESE 8 13 30.03 1017 10 16.09344 N/A
3:35 pm 15:35 Cloudy with Rain 77 24.9 70 20.9 79 79 WSW 21 33 30.06 1018 7 11.265408 N/A
3:55 pm 15:55 Cloudy with Nearby Thunderstorms 72 22.2 67 19.7 86 86 SW 14 22 30.06 1018 7 11.265408 0.06 1.524
4:15 pm 16:15 Mostly Cloudy with Light Rain 75 23.7 70 21.1 85 85 NNE 6 9 30.09 1019 10 16.09344 N/A
4:35 pm 16:35 Sunny 76 24.7 71 21.7 83 83 NNW 6 9 30.09 1019 10 16.09344 N/A
4:55 pm 16:55 Sunny 79 26.2 72 22.3 79 79 Calm 30.06 1018 10 16.09344 N/A
5:15 pm 17:15 Sunny 80 26.5 73 22.9 81 81 Calm 30.06 1018 10 16.09344 N/A
5:35 pm 17:35 Mostly Cloudy with Nearby Thunderstorms 79 25.9 72 22.1 80 80 S 14 22 30.09 1019 10 16.09344 N/A
5:55 pm 17:55 Partly Cloudy with Light Rain 76 24.3 72 22.4 89 89 SSW 13 20 30.09 1019 10 16.09344 N/A
6:15 pm 18:15 Mostly Cloudy with Light Rain 75 23.8 71 21.7 88 88 SSW 10 17 30.09 1019 10 16.09344 N/A
6:35 pm 18:35 Mostly Cloudy with Light Rain 74 23.3 70 21.2 88 88 SW 12 19 30.09 1019 10 16.09344 N/A
6:55 pm 18:55 Cloudy with Rain 73 23 71 21.7 92 92 S 9 15 30.06 1018 10 16.09344 0.01 0.254
7:15 pm 19:15 Sunny with Light Rain 73 23 70 21.3 90 90 SW 10 17 30.06 1018 10 16.09344 N/A
7:35 pm 19:35 Sunny with Light Rain 73 22.8 70 21.2 91 91 S 3 6 30.06 1018 10 16.09344 N/A
7:55 pm 19:55 Sunny 74 23.1 70 21.2 89 89 SSW 5 7 30.06 1018 10 16.09344 N/A
8:15 pm 20:15 Sunny with Light Rain 73 23 71 21.5 91 91 Calm 30.06 1018 10 16.09344 N/A
8:35 pm 20:35 Sunny 73 22.6 71 21.4 93 93 WSW 3 6 30.06 1018 10 16.09344 N/A
8:55 pm 20:55 Sunny 72 22.3 70 21.3 94 94 SW 3 6 30.06 1018 10 16.09344 N/A
9:15 pm 21:15 Clear 72 22.1 70 21.1 94 94 SSW 5 7 30.06 1018 10 16.09344 N/A
9:35 pm 21:35 Clear 72 22.1 70 21.1 94 94 SW 3 6 30.03 1017 10 16.09344 N/A
9:55 pm 21:55 Clear 72 22 70 21.2 95 95 SSW 3 6 30.06 1018 10 16.09344 N/A
10:15 pm 22:15 Clear 72 22 70 21.2 95 95 SSW 3 6 30.06 1018 10 16.09344 N/A
10:35 pm 22:35 Clear 72 22.3 70 21.1 93 93 Calm 30.06 1018 10 16.09344 N/A
10:55 pm 22:55 Clear 72 22.2 70 21.3 95 95 SW 3 6 30.06 1018 10 16.09344 N/A
11:15 pm 23:15 Clear 71 21.8 70 21.2 96 96 Calm 30.06 1018 10 16.09344 N/A
11:35 pm 23:35 Clear 71 21.7 70 21.2 97 97 Calm 30.06 1018 10 16.09344 N/A
11:55 pm 23:55 Clear 71 21.8 70 21.3 97 97 Calm 30.06 1018 10 16.09344 N/A

Powered by AerisWeather